Location: downtown San Diego
(32.7310°N, 117.1990°W)
Time: 02:10:24
(UTC-07:00)

Terra - Pass Details

Date: 14 June 2018
Orbit: 701 x 703 km, 98.2° (Epoch: 20 October)

Event Time Altitude Azimuth Distance (km) Brightness Sun altitude
Exits shadow 21:46:58 15° 75° (ENE) 1,860 3.7 -19.1°
Maximum altitude 21:47:31 15° 67° (ENE) 1,845 3.8 -19.2°
Drops below altitude 10° 21:50:10 10° 33° (NNE) 2,171 4.5 -19.5°
Sets 21:53:19 0° 10° (N) 3,093 5.7 -20.0°
